Weather History for Tekamah, NE

Change the Weather History Date:

Saturday, January 28, 2012

  Actual Average Record
Temperature  
Mean Temperature 34 °F -  
Max Temperature 46 °F 30 °F 52 °F (1976)
Min Temperature 21 °F 10 °F -19 °F (1972)
Degree Days  
Heating Degree Days 32    
Moisture  
Dew Point 12 °F    
Average Humidity 48    
Maximum Humidity 75    
Minimum Humidity 23    
Precipitation  
Precipitation 0.00 in - - ()
Sea Level Pressure  
Sea Level Pressure 30.16 in    
Wind  
Wind Speed 15 mph (West)    
Max Wind Speed 25 mph    
Max Gust Speed 31 mph    
Visibility 10 miles    
Events      
Averages and records for this station are not official NWS values.
T = Trace of Precipitation, MM = Missing Value Source: NWS Daily Summary

Daily Weather History Graph

Daily Weather History Graph

Search for Another Location

Airport:

Trip Planner

Search our weather history database for the weather conditions in past years. The results will help you decide how hot, cold, wet, or windy it might be!

Date:

Astronomy

Jan. 28, 2012 Rise Set
Actual Time 7:41 AM CST 5:34 PM CST
Civil Twilight 7:11 AM CST 6:04 PM CST
Nautical Twilight 6:37 AM CST 6:37 PM CST
Astronomical Twilight 6:05 AM CST 7:10 PM CST
Moon 9:58 AM CST (1/28) 11:30 PM CST (1/28)
Length of Visible Light 10h 52m
Length of Day
9h 53m
Waxing Crescent, 28% of the Moon is Illuminated
Jan 28
Waxing Crescent
Jan 30
First Quarter
Feb 7
Full
Feb 14
Last Quarter
Feb 21
New

Hourly Weather History & Observations

Time (CST) Temp. Windchill Dew Point Humidity Pressure Visibility Wind Dir Wind Speed Gust Speed Precip Events Conditions
12:54 AM 28.0 °F 17.5 °F 17.1 °F 63% 30.18 in 10.0 mi West 12.7 mph - N/A   Clear
1:54 AM 27.0 °F 15.6 °F 17.1 °F 66% 30.18 in 10.0 mi WNW 13.8 mph - N/A   Clear
2:54 AM 26.1 °F 14.0 °F 16.0 °F 66% 30.20 in 10.0 mi West 15.0 mph - N/A   Clear
3:54 AM 26.1 °F 14.0 °F 17.1 °F 69% 30.20 in 10.0 mi West 15.0 mph - N/A   Clear
4:54 AM 23.0 °F 11.7 °F 16.0 °F 74% 30.19 in 10.0 mi West 11.5 mph - N/A   Clear
5:54 AM 21.9 °F 9.2 °F 15.1 °F 75% 30.19 in 10.0 mi West 13.8 mph - N/A   Clear
6:54 AM 21.0 °F 8.1 °F 14.0 °F 74% 30.19 in 10.0 mi West 13.8 mph - N/A   Clear
7:54 AM 21.0 °F 8.1 °F 14.0 °F 74% 30.20 in 10.0 mi West 13.8 mph - N/A   Clear
8:54 AM 25.0 °F 12.2 °F 15.1 °F 66% 30.21 in 10.0 mi WSW 16.1 mph - N/A   Partly Cloudy
9:54 AM 28.9 °F 17.3 °F 16.0 °F 58% 30.19 in 10.0 mi WSW 16.1 mph - N/A   Clear
10:54 AM 35.1 °F 24.1 °F 15.1 °F 44% 30.18 in 10.0 mi West 19.6 mph - N/A   Clear
11:54 AM 39.9 °F 30.2 °F 14.0 °F 35% 30.17 in 10.0 mi West 20.7 mph 27.6 mph N/A   Clear
12:54 PM 43.0 °F 34.0 °F 12.9 °F 30% 30.15 in 10.0 mi WNW 21.9 mph 29.9 mph N/A   Clear
1:54 PM 46.0 °F 37.6 °F 12.0 °F 25% 30.14 in 10.0 mi WNW 24.2 mph 31.1 mph N/A   Clear
2:54 PM 46.0 °F 38.3 °F 10.0 °F 23% 30.14 in 10.0 mi WNW 20.7 mph 26.5 mph N/A   Clear
3:54 PM 45.0 °F 36.0 °F 10.0 °F 24% 30.15 in 10.0 mi WNW 25.3 mph 31.1 mph N/A   Clear
4:54 PM 42.1 °F 34.5 °F 9.0 °F 26% 30.15 in 10.0 mi WNW 15.0 mph - N/A   Clear
5:54 PM 33.1 °F 24.9 °F 7.0 °F 34% 30.15 in 10.0 mi West 10.4 mph - N/A   Clear
6:54 PM 28.9 °F 20.4 °F 6.1 °F 38% 30.15 in 10.0 mi West 9.2 mph - N/A   Clear
7:54 PM 28.0 °F 18.1 °F 7.0 °F 41% 30.15 in 10.0 mi West 11.5 mph - N/A   Clear
8:54 PM 33.1 °F 23.9 °F 8.1 °F 35% 30.14 in 10.0 mi West 12.7 mph - N/A   Clear
9:54 PM 33.1 °F 23.9 °F 9.0 °F 37% 30.12 in 10.0 mi West 12.7 mph - N/A   Clear
10:54 PM 30.9 °F 20.7 °F 9.0 °F 40% 30.12 in 10.0 mi West 13.8 mph - N/A   Clear
11:54 PM 33.1 °F 24.9 °F 10.0 °F 38% 30.11 in 10.0 mi WSW 10.4 mph - N/A   Mostly Cloudy